Dewpoint
13 13 13 13 12 12 12 12 12 13 14 14 15 15 14 14 14 14 14 13 12 11 11 11 11 11 12 12 11 11 12 12 12 12 11 10 10 10 11 11 11 11
13 13 13 13 11 11 11 11 12 12 12 12 13 14 14 14 14 13 14 13 12 12 11 11 11 11 11 12 11 11 12 12 12 12 11 10 10 11 11 11 11 11
13 14 13 13 12 11 11 12 12 12 12 11 11 12 12 13 14 13 13 12 12 12 12 11 12 11 11 12 12 12 12 12 12 12 12 11 10 10 10 11 11 11
13 13 13 13 13 13 12 12 12 12 12 12 11 11 10 10 11 12 11 10 10 11 12 12 12 12 12 12 12 12 12 12 11 12 12 11 11 11 10 11 11 11
11 13 13 13 13 13 12 11 11 12 12 12 12 12 8 5 7 9 9 9 9 10 12 12 12 12 12 12 12 12 12 11 11 11 11 11 11 11 11 11 11 11
11 12 13 13 12 12 11 12 12 11 12 13 13 13 10 6 6 8 8 8 11 12 13 13 12 12 12 12 12 12 12 11 11 11 12 12 12 11 11 11 11 11
9 11 12 12 12 11 11 12 11 8 10 13 14 14 12 9 8 8 7 7 10 12 12 11 9 9 10 11 10 10 11 11 11 11 12 12 12 11 11 11 11 11
7 7 10 11 12 12 12 12 10 5 8 14 15 14 13 10 9 9 7 6 7 9 9 7 3 2 5 7 8 9 10 11 11 12 12 11 11 11 11 11 11 11
6 6 9 12 12 12 11 10 7 5 9 14 15 14 12 10 8 8 6 5 5 7 7 6 3 0 1 4 6 8 8 8 10 11 12 12 11 11 11 11 11 11
8 7 9 12 12 12 11 6 4 7 10 13 14 12 10 8 7 7 5 1 -0 2 2 2 1 1 2 3 4 5 4 3 7 10 11 11 11 10 9 10 10 10
13 13 13 13 14 14 11 5 2 5 9 11 12 11 10 8 4 2 1 0 -0 0 1 0 0 1 2 3 4 3 2 2 7 10 11 11 10 7 6 7 9 10
18 18 17 17 17 14 8 3 2 2 4 7 8 9 9 7 3 -3 -1 4 5 5 4 2 -0 0 2 3 4 4 2 1 6 11 12 11 10 7 6 8 9 10
17 17 15 16 17 16 10 2 1 1 -0 1 2 3 3 3 3 0 -0 4 5 4 5 4 2 1 3 4 4 4 3 2 5 10 11 11 10 9 9 10 10 10
15 16 16 15 17 17 13 3 1 1 -1 -2 -0 1 1 1 2 2 1 2 3 3 3 5 4 2 3 5 3 3 4 4 5 8 10 11 11 11 10 10 10 10
18 18 18 17 18 18 13 5 2 1 -1 0 0 0 1 2 3 4 3 1 2 2 3 5 5 3 3 4 3 3 5 6 5 6 9 11 11 11 11 11 11 10
19 18 17 17 18 17 14 8 6 3 1 1 1 0 1 3 4 6 5 2 1 4 5 6 5 3 3 5 4 4 6 7 6 6 8 10 11 11 11 10 10 11
18 18 17 17 17 17 14 11 8 6 3 2 2 2 2 2 2 5 6 3 1 5 7 7 5 3 3 5 4 4 7 9 8 7 8 9 10 10 10 9 10 10
18 18 18 17 17 17 16 13 11 8 6 4 4 4 4 2 0 3 6 3 0 4 8 8 5 4 4 5 4 5 8 10 10 9 10 9 9 8 9 10 10 10
18 18 18 18 18 17 16 15 13 10 8 7 6 6 6 1 -2 3 7 5 1 4 9 8 5 5 7 7 7 8 10 11 11 11 11 10 8 8 9 10 11 10
19 18 18 18 17 17 16 16 14 12 10 8 7 7 5 1 0 2 6 6 4 5 8 8 5 7 9 9 10 11 10 10 10 10 10 10 9 9 10 11 11 11
19 19 18 18 18 17 16 16 15 13 12 10 8 6 4 2 2 2 4 8 9 8 8 6 5 7 10 11 12 12 9 7 8 9 9 10 10 10 10 11 11 10
19 19 18 18 18 17 16 15 14 13 13 12 10 9 7 5 4 2 4 9 11 9 8 7 6 9 11 12 11 9 7 4 5 8 10 10 11 11 10 10 10 9
19 19 18 18 18 17 16 15 14 13 13 12 12 11 11 9 6 4 5 10 12 11 9 8 7 8 11 11 8 6 4 2 4 7 10 11 11 10 10 10 9 9
18 18 18 18 17 17 16 15 14 13 12 12 12 12 12 10 9 9 10 13 13 11 10 9 9 10 10 8 4 2 2 3 5 7 10 11 11 10 8 7 7 7
17 17 17 17 17 17 16 14 13 12 12 12 12 13 12 12 12 12 13 13 13 12 11 9 10 11 9 5 2 2 2 4 6 8 9 10 10 9 7 7 6 6
16 17 17 17 17 16 15 14 13 12 12 12 12 13 13 13 12 12 13 12 12 12 11 9 9 10 8 4 4 4 4 6 7 7 7 7 7 8 8 8 7 8
Wind_Speed
29 28 27 27 26 24 23 22 19 18 15 13 11 10 11 10 10 10 11 11 10 9 8 8 9 8 7 7 7 6 6 6 6 7 8 7 7 7 8 8 8 9
31 30 29 28 28 26 24 22 20 17 15 13 11 10 10 9 9 10 10 10 9 8 8 8 8 8 7 7 7 7 7 7 7 8 9 8 8 9 9 9 10 11
32 31 31 30 29 27 24 22 20 17 14 12 11 10 10 9 10 11 10 10 9 8 8 8 8 8 7 7 8 7 8 8 8 8 10 9 9 10 10 10 10 12
33 32 32 31 28 26 25 23 21 18 14 12 11 11 11 10 10 10 10 10 9 8 8 9 9 8 8 8 8 8 9 9 9 10 11 11 10 10 10 10 11 11
34 32 31 30 28 26 25 24 22 18 14 13 13 11 11 10 10 10 10 10 9 8 8 9 9 9 9 9 9 9 9 9 10 10 11 11 10 11 11 11 11 10
35 31 30 29 28 27 25 23 22 19 15 15 14 12 11 10 10 10 9 8 8 8 8 9 10 10 10 10 10 10 10 10 10 11 12 12 11 11 11 11 11 11
37 34 31 30 29 28 27 25 23 21 18 16 14 12 12 11 10 10 9 7 8 9 10 11 11 11 11 11 11 12 11 11 11 12 12 12 11 10 11 11 11 12
40 39 35 32 30 28 27 25 24 23 19 17 15 12 11 10 9 9 8 8 9 10 11 12 12 12 12 12 13 13 13 12 12 12 12 11 11 11 11 11 11 12
42 42 37 32 32 31 28 24 22 21 19 19 16 11 7 8 9 8 8 9 11 12 13 13 14 14 14 15 15 15 15 14 14 13 13 12 12 11 11 11 11 13
45 43 39 35 34 31 26 24 21 19 20 20 16 8 5 9 11 11 12 14 17 18 17 17 17 16 16 17 17 18 18 17 15 14 13 13 13 12 11 11 12 14
43 41 37 35 34 31 28 26 25 23 22 21 19 15 13 17 21 21 22 22 23 22 22 23 21 19 18 18 18 19 19 18 16 14 14 14 14 13 13 13 14 16
34 33 32 30 30 31 31 30 30 29 28 27 27 26 27 30 31 30 29 27 24 23 24 25 24 21 20 19 19 19 20 18 16 15 14 16 15 14 14 14 15 16
35 37 38 34 32 33 34 34 33 32 32 36 38 35 37 42 41 37 36 34 31 30 29 27 25 22 21 21 19 19 20 19 17 15 15 16 16 15 15 15 16 17
39 39 38 37 35 35 34 33 33 31 31 36 41 40 41 46 45 41 40 40 39 39 38 33 28 25 23 22 20 20 20 19 18 17 16 16 16 16 16 16 17 17
32 31 31 32 32 33 32 33 36 36 35 39 42 42 41 43 42 40 41 43 43 42 40 34 29 26 25 23 22 20 20 19 19 18 16 16 16 17 17 17 17 18
29 29 29 28 26 27 36 43 45 45 46 48 47 44 41 41 42 42 42 45 45 39 34 30 27 26 25 23 22 20 19 19 19 17 17 17 17 18 18 18 19 20
31 33 32 31 28 26 34 43 48 50 52 53 52 49 44 41 42 44 43 46 46 36 29 29 29 27 25 24 24 21 19 19 19 18 18 18 18 18 18 19 22 23
29 30 31 32 30 28 29 35 43 50 53 53 52 49 46 42 44 46 45 47 46 37 30 29 29 27 24 24 24 23 20 20 21 20 20 20 21 21 20 21 23 25
25 25 26 26 26 25 25 29 37 44 49 49 45 43 44 45 48 49 46 46 45 38 32 30 27 25 23 22 23 23 22 22 22 21 20 22 22 22 21 23 25 27
21 21 21 21 21 20 22 27 32 37 42 44 43 43 45 47 49 49 47 47 45 39 33 29 26 24 23 23 24 25 24 23 22 20 21 22 23 22 23 25 25 25
20 20 19 18 17 17 20 23 25 28 33 39 42 43 45 46 48 49 47 43 40 37 33 29 26 26 26 25 26 28 28 26 23 22 22 23 24 25 26 26 26 27
20 19 17 15 16 17 19 20 20 23 27 33 38 40 42 44 45 47 45 39 35 34 33 30 28 28 27 25 26 28 29 27 24 24 25 27 28 28 27 27 28 29
18 15 14 15 16 17 18 18 19 20 22 26 31 33 36 38 40 43 41 35 33 33 32 30 31 30 27 25 25 27 28 28 28 27 26 25 25 25 25 26 28 29
14 13 14 17 17 17 17 18 18 19 19 21 24 27 30 32 34 33 30 27 28 30 29 28 28 27 24 24 26 29 30 30 30 28 27 24 21 22 25 28 30 31
13 14 15 17 17 17 17 17 17 17 18 21 24 27 28 27 26 24 21 20 22 25 28 27 25 23 23 24 27 31 32 30 28 26 27 27 23 21 24 28 29 26
15 17 17 18 18 18 17 17 17 17 18 21 23 22 21 20 20 19 19 18 17 20 26 27 23 22 24 24 25 27 27 25 23 19 18 19 20 20 21 24 24 20
Wind_Direction
220 219 218 217 217 216 217 219 221 225 229 233 239 243 244 245 238 230 230 236 239 233 227 228 226 218 214 222 223 215 215 215 217 229 235 238 247 246 250 259 262 268
221 220 220 219 218 217 217 219 223 227 230 236 243 246 245 242 237 238 239 238 237 231 228 230 229 224 217 223 233 230 233 235 231 241 252 256 259 258 258 263 267 273
221 222 222 220 221 220 218 220 223 224 226 233 242 249 248 239 235 241 243 238 232 230 233 231 229 232 226 222 231 236 241 250 248 250 260 264 264 263 265 266 268 275
224 224 224 224 225 225 223 222 223 223 222 226 233 244 251 245 240 243 248 247 241 234 234 234 229 230 232 228 230 236 242 250 254 251 257 265 266 268 270 268 268 270
228 227 227 228 228 228 225 223 224 223 223 228 236 250 259 255 246 245 251 255 254 249 241 238 236 232 236 237 234 239 245 250 257 255 254 257 260 266 269 267 266 264
232 230 229 228 228 228 226 226 228 226 226 235 246 258 264 260 252 249 254 257 250 246 239 239 243 238 238 241 240 243 247 249 254 254 251 251 251 256 259 260 263 262
234 232 230 230 230 230 229 231 234 231 232 242 250 259 267 265 260 258 261 262 252 246 247 251 254 248 243 246 250 253 255 255 254 251 249 250 250 249 251 253 259 263
235 235 233 232 229 227 227 231 233 230 233 246 245 248 268 273 269 270 273 276 272 266 266 269 269 263 255 254 256 256 255 256 256 254 249 247 247 248 249 252 256 260
234 236 234 231 229 227 225 226 230 230 235 246 242 235 263 283 278 279 282 281 279 275 274 272 269 266 263 259 257 255 255 256 253 250 248 245 245 246 248 254 255 256
235 235 232 230 227 223 219 216 222 231 239 249 253 245 269 293 289 281 274 269 267 265 264 263 261 261 261 260 259 258 259 259 253 248 248 245 243 243 245 250 251 253
236 234 232 230 225 219 213 212 214 223 236 251 259 257 265 278 276 271 266 260 258 258 257 254 253 254 256 258 260 262 261 259 252 247 246 245 243 245 247 247 248 251
232 232 232 231 229 222 212 208 210 215 227 242 249 251 261 268 263 258 256 251 251 257 258 253 248 249 252 254 256 261 263 260 253 245 245 248 248 249 251 252 253 254
234 239 239 237 238 231 214 207 210 215 226 239 244 248 257 261 258 252 248 247 249 256 259 255 249 246 248 250 251 257 263 262 255 248 248 252 252 253 253 254 257 258
236 240 240 238 233 224 213 210 214 221 228 234 240 246 251 254 256 254 248 245 247 251 253 254 251 246 245 247 248 253 261 263 259 254 252 254 255 256 257 258 260 260
228 227 231 232 220 206 205 215 223 227 228 228 235 245 251 252 255 254 248 243 242 244 247 249 250 246 244 245 247 252 259 262 263 260 257 255 255 258 262 265 266 266
228 232 237 240 230 212 208 215 222 225 226 229 234 243 252 255 254 254 250 241 238 240 243 245 246 245 245 245 246 249 256 260 262 264 262 259 258 260 264 269 275 279
240 244 248 251 248 230 213 211 217 221 224 230 236 244 254 257 254 254 250 241 237 239 242 244 246 246 246 246 243 243 250 255 259 265 268 267 264 264 268 274 281 283
244 244 244 245 241 231 219 213 215 219 223 231 238 246 254 256 252 252 250 243 239 240 242 244 246 247 246 245 240 236 241 248 252 258 263 265 263 263 269 274 278 280
241 239 236 236 233 230 223 215 215 219 224 232 239 246 250 250 249 249 248 244 240 240 242 243 243 245 246 243 234 230 233 240 246 250 255 261 263 262 266 272 276 281
236 236 232 229 229 229 222 216 217 221 226 233 239 244 245 246 246 246 246 245 242 241 243 242 239 241 242 237 231 229 230 234 242 249 253 258 261 260 263 270 276 283
231 230 228 226 226 224 220 218 221 225 229 234 238 241 242 243 244 245 246 245 242 240 241 242 241 241 241 237 234 233 233 234 241 250 252 253 256 258 262 268 275 281
227 225 223 221 219 217 215 216 221 226 230 233 236 239 242 243 244 245 246 245 243 239 239 241 241 241 241 242 241 238 236 238 246 254 257 257 257 259 263 269 276 277
224 221 214 208 207 208 207 207 214 220 224 230 235 238 240 242 244 245 246 248 247 242 239 241 242 242 241 241 241 240 239 244 251 257 262 263 263 266 271 275 279 278
211 207 200 197 197 198 199 201 206 212 217 226 232 234 237 241 244 244 243 247 249 244 237 237 242 245 241 238 241 244 246 250 254 261 268 271 273 281 284 281 281 280
183 184 187 188 188 189 193 196 199 206 218 227 230 232 235 240 242 240 237 243 250 245 236 236 242 245 238 234 242 249 251 252 257 267 276 275 275 282 284 280 279 281
165 173 179 184 186 185 185 189 195 205 219 229 231 230 230 232 235 236 237 243 248 242 239 241 243 240 234 236 247 253 251 251 260 274 282 279 279 281 279 277 281 286
Height
1541 1543 1544 1546 1547 1549 1551 1553 1555 1557 1558 1560 1561 1563 1564 1564 1565 1566 1566 1566 1566 1566 1566 1567 1567 1567 1568 1568 1568 1568 1568 1568 1568 1568 1568 1568 1568 1569 1570 1570 1571 1571
1538 1540 1541 1543 1545 1548 1550 1552 1554 1556 1558 1559 1561 1562 1563 1564 1565 1565 1565 1565 1565 1566 1566 1566 1567 1567 1568 1568 1568 1568 1568 1568 1568 1568 1567 1567 1567 1568 1569 1569 1569 1569
1535 1537 1539 1541 1543 1546 1548 1551 1552 1554 1556 1558 1559 1560 1561 1562 1563 1563 1564 1564 1564 1565 1565 1566 1566 1567 1567 1567 1568 1568 1568 1568 1568 1568 1567 1566 1567 1567 1567 1568 1568 1568
1532 1534 1536 1540 1543 1545 1548 1550 1551 1553 1555 1557 1557 1558 1559 1560 1561 1561 1561 1562 1563 1564 1564 1565 1566 1566 1566 1566 1566 1567 1567 1567 1567 1567 1567 1566 1566 1566 1566 1567 1567 1567
1528 1531 1535 1538 1542 1544 1546 1548 1550 1552 1554 1555 1556 1558 1558 1559 1559 1559 1560 1561 1562 1563 1563 1564 1564 1564 1565 1565 1565 1565 1565 1566 1566 1566 1566 1565 1565 1565 1566 1566 1565 1565
1526 1529 1532 1536 1539 1542 1544 1547 1549 1551 1553 1555 1556 1557 1558 1558 1559 1559 1559 1560 1561 1562 1562 1562 1562 1563 1563 1563 1563 1563 1563 1564 1564 1564 1564 1563 1564 1564 1564 1564 1563 1563
1522 1525 1529 1532 1535 1539 1542 1545 1548 1551 1553 1554 1556 1557 1558 1559 1559 1559 1559 1559 1560 1561 1561 1561 1560 1561 1561 1561 1561 1561 1561 1561 1562 1562 1562 1561 1561 1561 1561 1562 1561 1561
1518 1521 1524 1528 1531 1535 1538 1542 1546 1549 1553 1555 1555 1556 1557 1559 1560 1559 1559 1558 1559 1559 1559 1559 1559 1558 1559 1559 1559 1559 1559 1559 1559 1559 1559 1559 1559 1559 1559 1559 1559 1559
1514 1516 1521 1525 1527 1530 1534 1539 1545 1549 1552 1553 1554 1556 1558 1558 1559 1559 1558 1557 1557 1558 1557 1557 1557 1556 1556 1556 1556 1556 1556 1556 1557 1557 1557 1557 1557 1557 1557 1557 1557 1557
1510 1513 1518 1521 1524 1528 1532 1537 1545 1550 1552 1551 1554 1558 1559 1558 1559 1559 1557 1555 1554 1554 1554 1554 1553 1553 1552 1552 1552 1553 1552 1553 1553 1554 1554 1554 1554 1554 1554 1554 1554 1554
1508 1511 1516 1519 1522 1525 1529 1534 1541 1546 1549 1550 1552 1555 1556 1556 1557 1556 1554 1552 1549 1549 1549 1549 1549 1549 1549 1549 1549 1549 1550 1550 1550 1551 1551 1552 1552 1551 1551 1552 1552 1552
1507 1511 1516 1520 1522 1524 1526 1529 1535 1541 1545 1547 1546 1547 1549 1550 1551 1550 1548 1545 1542 1542 1542 1542 1543 1545 1546 1546 1547 1547 1548 1548 1548 1549 1549 1550 1550 1550 1549 1550 1550 1550
1501 1504 1509 1515 1521 1524 1523 1523 1529 1536 1540 1540 1540 1540 1540 1539 1538 1539 1538 1536 1534 1535 1536 1537 1539 1541 1543 1543 1544 1545 1546 1546 1546 1547 1547 1548 1548 1548 1548 1548 1548 1548
1494 1498 1501 1505 1511 1517 1520 1521 1526 1530 1531 1532 1532 1529 1527 1525 1524 1525 1526 1526 1526 1528 1530 1532 1533 1536 1539 1540 1541 1542 1543 1544 1544 1545 1545 1546 1546 1546 1546 1546 1546 1546
1491 1494 1497 1500 1503 1509 1516 1519 1521 1521 1519 1518 1518 1516 1516 1515 1516 1517 1519 1519 1520 1522 1526 1528 1530 1532 1535 1537 1538 1539 1541 1542 1542 1543 1543 1543 1544 1545 1545 1544 1544 1544
1488 1490 1493 1496 1498 1503 1506 1508 1509 1510 1508 1506 1506 1509 1512 1513 1514 1515 1516 1517 1518 1521 1524 1526 1528 1529 1531 1533 1535 1537 1539 1540 1540 1540 1541 1541 1542 1542 1542 1542 1542 1541
1484 1486 1489 1491 1493 1495 1497 1498 1499 1500 1500 1500 1502 1506 1509 1510 1511 1512 1513 1515 1517 1520 1523 1524 1525 1526 1528 1530 1532 1534 1536 1537 1537 1538 1538 1538 1539 1539 1539 1539 1539 1539
1480 1481 1483 1485 1486 1489 1491 1492 1494 1495 1496 1497 1498 1501 1503 1505 1507 1508 1510 1511 1514 1517 1520 1521 1522 1523 1525 1527 1528 1530 1532 1533 1533 1534 1534 1535 1535 1535 1536 1536 1536 1535
1475 1476 1478 1479 1481 1484 1487 1489 1491 1493 1493 1494 1495 1496 1498 1500 1503 1505 1506 1508 1510 1514 1517 1518 1520 1521 1522 1523 1525 1526 1527 1528 1529 1530 1531 1531 1532 1532 1533 1533 1532 1532
1471 1472 1474 1475 1477 1480 1483 1485 1488 1489 1491 1492 1493 1493 1494 1496 1499 1501 1503 1504 1507 1511 1514 1516 1517 1518 1519 1520 1521 1522 1523 1524 1525 1526 1527 1528 1528 1529 1529 1529 1529 1528
1468 1469 1471 1473 1475 1477 1478 1481 1484 1486 1488 1490 1491 1492 1492 1494 1496 1498 1500 1502 1504 1508 1512 1513 1514 1515 1516 1517 1519 1520 1521 1521 1522 1523 1524 1525 1526 1525 1526 1526 1526 1525
1465 1467 1470 1472 1473 1475 1476 1479 1481 1483 1486 1488 1489 1491 1492 1493 1494 1496 1498 1501 1503 1505 1508 1510 1510 1512 1514 1515 1517 1518 1519 1518 1519 1520 1521 1522 1522 1522 1522 1522 1522 1521
1463 1466 1469 1472 1473 1474 1476 1478 1480 1482 1485 1486 1488 1490 1490 1491 1493 1494 1497 1499 1501 1502 1504 1506 1507 1509 1511 1513 1515 1516 1516 1516 1516 1517 1518 1520 1520 1519 1519 1519 1518 1517
1462 1465 1468 1471 1472 1474 1475 1478 1480 1482 1484 1485 1486 1488 1489 1491 1493 1494 1496 1497 1498 1498 1501 1503 1504 1505 1508 1511 1512 1513 1514 1513 1513 1514 1516 1518 1518 1517 1516 1515 1514 1513
1461 1464 1467 1469 1471 1473 1475 1477 1479 1481 1483 1484 1485 1487 1489 1490 1492 1494 1494 1495 1496 1497 1497 1500 1502 1503 1506 1508 1509 1510 1510 1511 1511 1512 1513 1514 1514 1514 1513 1512 1511 1510
1459 1462 1465 1467 1469 1471 1473 1475 1477 1479 1481 1482 1484 1486 1488 1490 1492 1493 1493 1493 1495 1495 1495 1497 1500 1501 1503 1505 1506 1506 1507 1508 1509 1509 1510 1510 1509 1509 1510 1509 1508 1507